Powrót do katalogu

COSMOS 1818 COOLANT

LostLEO
NORAD 36933·DEBRIS·🇷🇺 Russia

Wystrzelony Feb 1, 1987 z Baikonur Cosmodrome

Loading…

Następne Przeloty (najbliższe 24 godziny)

TLE

NieaktualneSource: Space-Track

Epoka: Jan 6, 2022, 10:59 UTC

1 36933U 87011M   22006.45832574  .00000198  00000-0  10527-3 0  9995
2 36933  65.0089  75.6713 0022013 259.2949 100.5658 14.34694594649699

Śledź COSMOS 1818 COOLANT w czasie rzeczywistym z AllMySat

Download on the App Store